Tracking 29487 objects as of 11-Sep-2024
HD Live streaming from Space Station
objects crossing your sky now

COSMOS 1691 DEB

Track COSMOS 1691 DEB now!
10-day predictions


NORAD ID: 43314
Int'l Code: 1985-094Y
Perigee: 1,322.0 km
Apogee: 1,389.3 km
Inclination: 82.6 °
Period: 112.7 minutes
Semi major axis: 7726 km
RCS: Unknown
Launch date: October 9, 1985
Source: Commonwealth of Independent States (former USSR) (CIS)
Launch site: PLESETSK MISSILE AND SPACE COMPLEX (PKMTR)

Note: This is SATELLITE DEBRIS
Your satellite tracking list
Your tracking list is empty




NASA's NSSDC Master Catalog

Two Line Element Set (TLE):
1 43314U 85094Y   24253.82128495  .00001020  00000-0  45316-2 0  9990
2 43314  82.5520 100.0970 0043540 302.2765  57.4120 12.78240487503333
Source of the keplerian elements: AFSPC